UWE-4

Last updated on Fri Dec 19 2025 00:03:11 GMT+0000 (Coordinated Universal Time)

1 43880U 18111E 25352.30645140 .00023140 00000+0 68932-3 0 9995 2 43880 97.5865 268.9855 0007214 250.8189 109.2273 15.34671471382933
UTC large
Height (km)
Speed (km/s)
/
Latitude / Longitude
Inclination (degrees)
Orbital Period (minutes)
Azimuth
Elevation
Range (km)
Doppler Factor

Next 0 passes for location: London (51.5072 / 0.1276)

Sorry there are no passes over London.